Location: Sunny Point
(33.0946°N, 85.0574°W)
Time: 01:25:42
(UTC+00:00)

X-37B - Pass Details

Date: 04 December 2022
Orbit: 277 x 277 km, 45.0° (Epoch: 01 November)

Event Time Altitude Azimuth Distance (km) Brightness Sun altitude
Rises 23:25:28 0° 210° (SSW) 1,897 4.9 -11.0°
Reaches altitude 10° 23:27:36 10° 192° (SSW) 1,089 3.3 -11.4°
Maximum altitude 23:29:32 21° 139° (SE) 694 1.6 -11.8°
Enters shadow 23:30:16 18° 113° (ESE) 764 1.6 -11.9°
